SCP
0 0 0 0 0 0 0 0 0 0 0 0 0 0 0 0 0 0 0 0 0 0 0 0 0 0 0 0 0 0 0 0 0 0 0 0 0 0 0 0 0 0 0 0 0 0 0 0 0
0 0 0 0 0 0 0 0 0 0 0 0 0 0 0 0 0 0 0 0 0 0 0 0 0 0 0 0 0 0 0 0 0 0 0 0 0 0 0 0 0 0 0 0 0 0 0 0 0
0 0 0 0 0 0 0 0 0 0 0 0 0 0 0 0 0 0 0 0 0 0 0 0 0 0 0 0 0 0 0 0 0 0 0 0 0 0 0 0 0 0 0 0 0 0 0 0 0
0 0 0 0 0 0 0 0 0 0 0 0 0 0 0 0 0 0 0 0 0 0 0 0 0 0 0 0 0 0 0 0 0 0 0 0 0 0 0 0 0 0 0 0 0 0 0 0 0
-0 -0 0 0 0 0 0 0 0 0 0 0 0 0 0 0 0 0 0 0 0 0 0 0 0 0 0 0 0 0 0 0 0 0 0 0 0 0 0 0 0 0 0 0 0 0 0 0 0
-0 0 0 0 0 0 0 0 0 0 0 0 0 0 0 0 0 0 0 0 0 0 0 0 0 0 0 0 0 0 0 0 0 0 0 0 0 0 0 0 0 0 0 0 0 0 0 0 0
0 0 0 0 0 0 0 0 0 0 0 0 0 0 0 0 0 0 0 0 0 0 0 0 -0 -0 0 0 0 0 0 0 0 0 0 0 0 0 0 0 0 0 0 0 0 0 0 0 0
0 0 0 0 0 0 0 0 0 0 0 0 0 0 0 0 0 0 0 0 0 0 0 0 -0 -0 -0 0 0 0 0 0 0 0 0 0 0 0 0 0 0 0 0 0 0 0 0 0 0
0 0 0 0 0 0 0 0 0 0 0 0 0 0 0 0 0 0 0 0 0 0 0 0 -0 -0 -0 0 0 0 0 0 0 0 0 0 0 0 0 0 0 0 0 0 0 0 0 0 0
0 0 0 0 0 0 0 0 0 0 0 0 0 0 0 0 0 0 0 0 0 0 0 0 -0 -0 0 0 0 0 0 0 0 0 0 0 0 0 0 0 0 0 0 0 0 0 0 0 0
0 0 0 0 0 0 0 0 0 0 0 0 0 0 0 0 0 0 0 0 0 0 0 0 0 0 0 0 0 0 0 0 0 0 0 0 0 0 0 0 0 0 0 0 0 0 0 0 0
0 0 0 0 0 0 0 0 0 0 0 0 0 0 0 0 0 0 0 0 0 0 0 0 0 0 0 0 0 0 0 0 0 0 0 0 0 0 0 0 0 0 0 0 0 0 0 0 0
0 0 0 0 0 0 0 0 0 0 0 0 0 0 0 0 0 0 0 0 0 0 0 0 0 0 0 0 0 0 0 0 0 0 0 0 0 0 0 0 0 0 0 0 0 0 0 0 0
0 0 0 0 0 0 0 0 0 0 0 0 0 0 0 0 0 0 0 0 0 0 0 0 0 0 0 0 0 0 0 0 0 0 0 0 0 0 0 0 0 0 0 0 0 0 0 0 0
0 0 0 0 0 0 0 0 0 0 0 0 0 0 0 0 0 0 0 0 0 0 0 0 0 0 0 0 0 0 0 0 0 0 0 0 0 0 0 0 0 0 0 0 0 0 0 0 0
0 0 0 0 0 0 0 0 0 0 0 0 0 0 0 0 0 0 0 0 0 0 0 0 0 0 0 0 0 0 0 0 0 0 0 0 0 0 0 0 0 0 0 0 0 0 0 0 0
0 0 0 0 0 0 0 0 0 0 0 0 0 0 0 0 0 0 0 0 0 0 0 0 0 0 0 0 0 0 0 0 0 0 0 0 0 0 0 0 0 0 0 0 0 0 0 0 0
0 0 0 0 0 0 0 0 0 0 0 0 0 0 0 0 0 0 0 0 0 0 0 0 0 0 0 0 0 0 0 0 0 0 0 0 0 0 0 0 0 0 0 0 0 0 0 0 0
0 0 0 0 0 0 0 0 0 0 0 0 0 0 0 0 0 0 0 0 0 0 0 0 0 0 0 0 0 0 0 0 0 0 0 0 0 0 0 0 0 0 0 0 0 0 0 0 0
0 0 0 0 0 0 0 0 0 0 0 0 0 0 0 0 0 0 0 0 0 0 0 0 0 0 0 0 0 0 0 0 0 0 0 0 0 0 0 0 0 0 0 0 0 0 0 0 0
0 0 0 0 0 0 0 0 0 0 0 0 0 0 0 0 0 0 0 0 0 0 0 0 0 0 0 0 0 0 0 0 0 0 0 0 0 0 0 0 0 0 0 0 0 0 0 0 0
0 0 0 0 0 0 0 0 0 0 0 0 0 0 0 0 0 0 0 0 0 0 0 0 0 0 0 0 0 0 0 0 0 0 0 0 0 0 0 0 0 0 0 0 0 0 0 0 0
0 0 0 0 0 0 0 0 0 0 0 0 0 0 0 0 0 0 0 0 0 0 0 0 0 0 0 0 0 0 0 0 0 0 0 0 0 0 0 0 0 0 0 0 0 0 0 0 0
0 0 0 0 0 0 0 0 0 0 0 0 0 0 0 0 0 0 0 0 0 0 0 0 0 0 0 0 0 0 0 0 0 0 0 0 0 0 0 0 0 0 0 0 0 0 0 0 0
0 0 0 0 0 0 0 0 0 0 0 0 0 0 0 0 0 0 0 0 0 0 0 0 0 0 0 0 0 0 0 0 0 0 0 0 0 0 0 0 0 0 0 0 0 0 0 0 0
0 0 0 0 0 0 0 0 0 0 0 0 0 0 0 0 0 0 0 0 0 0 0 0 0 0 0 0 0 0 0 0 0 0 0 0 0 0 0 0 0 0 0 0 0 0 0 0 0
0 0 0 0 0 0 0 0 0 0 0 0 0 0 0 0 0 0 0 0 0 0 0 0 0 0 0 0 0 0 0 0 0 0 0 0 0 0 0 0 0 0 0 0 0 0 0 0 0
0 0 0 0 0 0 0 0 0 0 0 0 0 0 0 0 0 0 0 0 0 0 0 0 0 0 0 0 0 0 0 0 0 0 0 0 0 0 0 0 0 0 0 0 0 0 0 0 0
0 0 0 0 0 0 0 0 0 0 0 0 0 0 0 0 0 0 0 0 0 0 0 0 0 0 0 0 0 0 0 0 0 0 0 0 0 0 0 0 0 0 0 0 0 0 0 0 0
0 0 0 0 0 0 0 0 0 0 0 0 0 0 0 0 0 0 0 0 0 0 0 0 0 0 0 0 0 0 0 0 0 0 0 0 0 0 0 0 0 0 0 0 0 0 0 0 0
Wind_Speed
4 3 2 2 3 7 8 6 5 8 5 6 7 6 7 8 6 8 5 9 10 11 12 15 20 20 21 22 22 23 23 24 24 25 25 25 26 26 26 26 26 26 26 26 26 26 26 25 25
3 1 1 1 1 6 7 6 8 7 10 9 7 6 7 8 7 7 4 8 10 11 11 14 19 20 20 21 22 22 23 23 24 24 25 25 26 26 26 26 26 25 25 25 25 25 26 26 25
4 4 4 4 5 5 9 8 11 12 9 5 5 6 5 7 6 5 6 7 8 10 11 14 19 19 20 21 21 22 22 23 23 24 24 25 25 26 25 26 25 25 25 25 25 25 26 26 26
1 3 5 7 10 6 7 11 12 11 6 4 6 8 6 5 4 6 6 6 8 10 12 14 19 19 20 21 21 21 22 22 23 23 24 24 25 25 25 25 25 25 25 25 25 25 25 25 26
1 2 6 8 8 7 7 10 11 7 7 6 7 8 8 7 8 8 7 7 9 10 11 13 18 19 19 20 21 21 21 22 22 23 24 24 24 25 24 25 25 25 25 25 25 25 25 25 25
2 2 4 7 8 7 7 7 8 6 7 7 7 9 8 9 8 7 6 6 8 10 10 10 15 17 18 19 20 20 20 21 21 22 23 23 23 24 24 24 25 25 25 25 25 25 25 25 25
3 5 6 10 10 8 7 7 8 7 8 7 7 9 9 10 8 6 5 5 7 9 9 10 11 12 14 16 18 18 18 19 20 20 22 22 22 22 22 23 24 25 25 26 26 26 26 25 25
3 7 8 8 10 9 10 7 4 6 7 6 5 6 9 13 10 6 4 4 6 8 9 10 11 11 11 10 14 16 16 18 18 19 21 21 19 20 21 21 24 25 25 25 25 26 26 26 24
2 3 6 8 8 9 12 8 6 3 8 6 3 2 9 15 10 6 3 4 6 7 8 10 11 11 10 10 10 12 13 15 16 15 19 18 13 14 15 19 23 24 24 24 24 25 26 25 21
4 3 6 3 3 10 13 9 11 9 9 7 8 9 14 13 10 6 3 5 7 8 9 9 10 10 10 8 8 8 8 10 11 12 14 12 12 11 14 18 20 21 22 22 22 24 22 18 13
8 8 7 5 6 11 12 10 10 10 8 9 13 17 16 13 9 6 4 5 6 7 7 8 9 10 10 7 7 6 6 7 9 12 13 11 10 9 10 9 11 13 16 13 16 15 12 13 13
9 8 7 8 7 9 10 10 8 9 1 6 14 18 16 13 10 7 4 4 5 6 7 8 9 9 9 8 7 7 6 6 7 9 12 10 8 10 10 9 11 10 9 12 12 11 15 16 16
8 8 7 9 9 8 9 7 5 6 3 11 16 16 15 12 10 7 4 3 4 6 7 8 8 9 9 8 7 7 7 7 8 8 9 12 10 11 11 10 10 12 11 12 13 13 16 16 16
10 11 10 8 7 6 7 5 5 7 11 16 16 15 14 12 10 8 6 3 3 5 6 7 8 9 9 8 8 7 7 7 8 8 10 12 10 11 11 12 11 11 11 12 13 16 15 14 14
9 9 8 5 4 5 5 7 9 11 15 17 16 15 13 12 10 8 6 3 3 4 5 7 7 9 9 9 9 7 7 8 8 8 10 11 12 12 12 11 11 11 12 14 13 15 14 14 14
5 5 5 6 5 5 7 7 8 15 18 17 16 15 14 13 12 9 6 4 2 3 5 6 6 9 10 9 9 7 7 8 8 8 9 12 13 14 12 11 12 13 13 12 13 13 13 14 14
5 4 3 5 7 6 8 7 8 15 17 17 16 15 14 13 12 10 8 5 2 2 4 6 7 9 10 10 8 8 8 8 7 8 8 11 13 14 13 11 12 14 12 12 13 13 14 15 15
1 3 3 3 7 9 10 11 7 15 17 17 16 15 15 14 14 11 9 6 3 1 3 5 7 9 9 8 7 7 8 7 7 8 9 13 12 14 13 11 13 14 12 12 13 16 15 14 15
1 4 5 1 3 7 12 14 10 14 17 17 17 16 16 15 12 11 10 7 4 1 3 5 7 8 8 7 8 8 9 8 7 7 11 12 13 14 13 11 13 13 12 14 16 15 17 15 14
3 5 5 1 2 6 10 15 11 13 18 18 17 17 17 15 13 12 11 8 5 1 2 5 7 8 8 7 7 7 8 7 7 7 9 11 13 14 12 14 13 13 13 16 16 16 14 14 13
3 5 5 5 1 4 9 8 5 4 10 14 16 16 16 15 15 14 12 9 5 1 2 4 6 7 7 8 6 7 6 6 7 9 8 11 13 13 14 15 14 15 14 14 16 16 17 15 14
3 1 4 4 6 3 4 7 3 4 7 12 16 17 17 15 14 13 12 9 5 2 1 3 5 6 7 8 8 10 8 9 10 9 9 13 13 13 14 15 15 15 14 16 16 16 15 16 13
2 1 3 3 4 5 2 6 2 3 5 8 13 16 15 14 14 13 11 9 6 3 0 3 5 6 7 7 8 9 9 8 8 10 12 12 12 13 14 15 15 15 14 16 17 16 16 13 13
1 3 3 3 4 4 1 5 5 3 2 1 4 9 12 13 13 12 11 9 6 4 1 2 4 5 6 7 8 9 10 11 12 12 12 11 10 11 14 15 15 15 14 15 16 15 16 14 14
2 5 4 3 3 2 2 6 7 0 3 5 4 4 9 12 13 13 12 10 7 4 2 3 4 5 6 7 8 9 10 11 12 12 12 12 11 11 15 15 15 15 15 15 15 14 14 14 14
1 4 5 6 7 6 2 7 4 1 2 4 6 5 8 12 13 13 12 9 7 4 3 3 4 5 6 7 8 8 9 8 8 11 11 11 10 12 15 16 16 16 16 15 14 11 12 11 13
1 2 3 4 4 7 6 6 7 3 7 8 8 8 11 13 14 13 11 9 7 5 3 2 4 5 6 7 8 8 9 9 10 11 11 10 11 12 15 16 16 16 16 15 15 10 12 11 11
3 3 3 3 5 7 9 7 5 5 6 8 10 12 12 13 14 13 11 9 7 5 4 3 3 5 6 7 7 7 8 9 10 10 11 12 13 14 15 15 16 16 16 15 14 12 11 12 11
5 4 3 2 3 5 8 7 3 8 5 6 8 10 13 15 15 13 11 9 7 6 4 3 3 5 6 6 7 8 8 9 10 9 11 12 12 13 14 15 15 15 15 15 14 14 13 13 13
3 4 6 4 4 5 6 10 2 6 6 7 8 8 11 14 14 13 11 10 8 7 5 4 4 4 5 6 7 8 8 9 9 10 11 12 13 13 14 14 15 15 15 14 13 13 13 13 13
Wind_Direction
114 146 237 235 110 78 85 89 111 125 98 85 77 78 74 53 28 77 77 21 7 0 355 356 10 12 14 16 16 16 16 16 15 14 13 12 10 9 8 7 4 1 360 358 357 355 353 352 351
93 164 274 340 162 122 103 122 123 102 115 116 91 89 90 82 65 82 65 25 12 9 2 4 11 14 16 17 17 17 16 16 15 14 12 11 9 7 6 5 2 360 358 356 355 353 351 350 348
95 48 45 61 63 85 117 128 121 116 125 128 105 69 70 86 84 79 53 27 18 19 12 9 14 16 18 18 17 17 16 15 14 13 11 10 8 6 4 3 360 358 357 355 353 351 349 347 345
117 87 68 67 83 61 107 133 134 136 133 117 129 111 93 57 72 87 69 37 27 26 19 15 17 19 20 20 18 18 16 15 13 11 9 8 6 3 1 1 357 355 354 353 351 348 346 344 342
90 104 88 83 88 104 115 131 150 149 139 137 140 121 109 100 102 98 76 44 31 28 22 20 21 21 21 21 19 17 15 14 11 9 7 5 2 360 358 358 354 352 352 350 349 346 344 342 340
95 83 110 118 117 130 141 158 168 151 138 144 148 129 117 133 126 102 77 53 37 29 24 24 23 22 21 20 19 15 13 11 9 6 4 2 359 357 355 355 351 349 348 346 345 343 341 339 337
76 72 97 126 137 158 155 167 186 164 154 150 151 134 132 151 131 116 88 58 43 31 27 24 21 20 19 18 16 12 10 8 7 5 2 359 355 353 352 352 348 346 345 343 341 339 337 336 333
75 105 115 143 154 159 147 143 150 166 136 127 171 160 156 155 144 132 98 60 45 36 30 23 22 17 9 8 13 6 6 5 4 3 360 356 351 350 348 348 345 343 342 340 338 336 334 332 328
260 122 143 158 168 152 156 153 135 121 134 144 160 108 127 139 148 151 134 84 53 41 34 24 19 14 5 0 360 358 1 3 359 359 357 353 348 346 343 343 340 340 338 336 334 333 331 329 324
8 98 100 86 129 150 163 166 153 161 164 160 149 130 133 146 156 154 117 64 43 34 30 24 18 11 3 356 351 354 357 356 358 355 352 347 343 339 338 334 335 335 333 332 332 330 327 327 322
47 76 104 94 105 142 151 155 165 175 186 189 172 155 153 158 161 154 119 68 45 35 29 23 16 8 2 354 349 352 350 350 351 351 349 342 339 334 335 332 331 331 330 331 329 326 326 322 319
84 76 91 112 120 144 150 154 175 198 245 167 160 155 159 167 168 161 129 81 52 37 27 20 12 6 359 352 347 350 348 346 345 344 345 343 337 333 333 328 327 327 326 325 323 319 318 316 312
86 105 88 103 114 126 142 164 177 188 144 145 148 159 169 172 167 157 135 103 55 37 27 18 3 2 355 349 343 346 347 344 341 340 342 343 334 331 329 323 323 321 320 320 319 316 316 312 310
102 109 112 115 119 139 157 164 191 176 156 153 161 171 177 178 175 169 168 128 61 37 24 10 359 359 350 346 344 344 343 341 338 338 340 339 333 327 323 319 319 317 318 318 313 312 311 309 307
121 115 122 135 143 149 177 201 212 166 168 169 177 180 184 186 185 186 170 139 71 40 17 8 353 351 346 343 344 341 342 340 338 337 335 336 333 327 324 318 317 317 318 315 311 310 308 307 306
149 166 176 155 173 164 223 254 167 165 178 183 188 189 192 194 196 188 174 156 102 38 11 4 350 342 344 343 341 340 340 340 337 335 333 338 336 332 326 321 318 319 316 313 311 309 309 307 305
189 228 234 170 190 184 226 258 151 177 189 195 196 198 200 198 199 191 182 169 137 36 4 354 349 343 343 340 338 338 339 339 338 337 339 340 336 334 328 321 318 320 316 312 310 310 309 306 305
197 252 253 241 175 206 232 248 181 189 202 207 205 206 207 208 203 192 184 174 159 75 358 350 347 346 343 340 338 337 341 341 341 341 341 337 334 333 328 319 320 319 313 311 311 310 306 303 303
307 271 279 301 144 229 250 261 238 195 206 215 214 213 214 215 204 187 186 182 180 185 350 351 346 349 348 345 343 340 340 335 337 337 334 332 331 329 325 320 318 316 312 310 308 307 306 305 305
248 273 282 208 161 255 287 278 261 207 210 216 219 219 219 215 201 191 189 188 192 214 352 347 349 347 350 346 337 329 323 322 325 328 328 330 329 325 321 318 315 313 310 308 307 307 304 302 304
251 282 310 311 256 226 293 275 180 193 222 227 231 231 227 218 207 195 192 191 190 199 6 348 344 340 345 342 332 327 322 321 332 333 329 328 324 320 318 315 314 311 309 306 306 305 302 302 302
301 322 298 289 287 298 326 307 143 172 221 226 228 228 227 219 212 198 190 187 183 152 55 336 334 335 343 340 337 337 333 333 333 329 322 322 322 320 319 317 315 311 308 305 305 303 300 297 295
351 2 271 265 271 275 222 280 287 154 247 231 225 224 222 215 207 195 186 176 162 150 171 322 324 330 340 340 337 333 330 328 325 325 323 324 323 321 321 322 319 316 312 308 305 302 298 294 291
182 203 177 200 235 256 126 287 292 175 227 240 222 220 215 206 196 185 170 162 161 165 202 297 314 328 338 337 336 333 330 329 326 328 327 327 323 322 326 327 323 320 316 312 308 304 299 293 289
243 292 290 276 265 338 104 265 267 350 245 261 267 236 207 194 186 178 172 173 175 187 216 277 310 328 337 335 333 331 328 326 326 327 326 325 323 325 327 328 325 323 320 318 313 306 301 296 291
26 327 347 324 321 320 220 260 283 139 243 255 260 247 202 190 187 182 177 175 178 189 218 269 311 327 333 331 330 326 326 324 320 323 321 320 320 321 323 325 324 325 325 324 322 313 306 298 293
162 98 3 287 282 280 272 270 277 185 243 236 234 220 203 193 188 182 176 176 181 191 213 268 307 319 327 326 324 321 326 324 320 320 319 318 320 321 322 323 325 326 328 329 329 323 319 308 298
356 133 189 261 307 301 294 279 272 253 247 221 225 220 205 192 188 183 179 178 182 190 206 242 290 312 317 318 321 317 319 321 319 317 319 321 322 323 324 326 327 328 329 331 330 329 330 324 317
164 172 192 203 274 284 300 293 214 263 274 254 241 221 203 192 189 184 179 178 182 190 207 236 274 298 308 315 316 315 318 319 318 317 320 321 322 325 325 327 328 328 329 330 330 333 335 333 330
244 217 201 242 227 236 274 275 190 244 254 254 259 228 204 193 187 182 178 178 187 198 208 229 260 287 304 309 310 312 315 318 319 320 321 322 323 325 326 326 327 328 329 329 326 332 337 337 335